Regional Weather Roundup
Issued by NWS Newport/Morehead, NC

Current Version | Previous Version | Text Only | Print | Product List | Glossary Off
Versions: 1 2 3 4 5 6 7 8 9 10 11 12 13 14 15 16 17 18 19 20 21 22 23 24 25 26 27 28 29 30 31 32 33 34 35 36 37 38 39 40 41 42 43 44 45 46 47 48 49 50

000
ASUS42 KMHX 271926
RWRMHX
WEATHER ROUNDUP FOR EASTERN NORTH CAROLINA
NATIONAL WEATHER SERVICE NEWPORT/MOREHEAD CITY NC
300 PM EDT FRI MAY 27 2022

NOTE: "FAIR" INDICATES FEW OR NO CLOUDS BELOW 12,000 FEET
WITH NO SIGNIFICANT WEATHER AND/OR OBSTRUCTIONS TO VISIBILITY

NCZ015>017-031-032-045>047-102-103-272000-
NORTH COAST

CITY           SKY/WX    TMP DP  RH WIND       PRES   REMARKS
EDENTON        CLOUDY    76  73  90 S12       29.91F
ELIZABETH CITY CLOUDY    74  69  85 S8        29.92F
KITTY HAWK     MOCLDY    76  70  82 SW5       29.91F
MANTEO         PTSUNNY   79  67  66 S15G22    29.92F

$$

NCZ045>047-081-094-103-104-272000-
CENTRAL COAST

CITY           SKY/WX    TMP DP  RH WIND       PRES   REMARKS
FRISCO         CLOUDY    78  69  73 S13G22    29.97F

$$

NCZ095-097-098-100-101-272000-
SOUTHERN COAST

CITY           SKY/WX    TMP DP  RH WIND       PRES   REMARKS
PINEY ISLAND   MOCLDY    86  65  49 SW25G41   29.93F
BEAUFORT       PTSUNNY   79  69  71 SW16      29.94F
CAPE CARTERET  CLOUDY    77  68  73 SW15G24   29.93F
JACKSONVILLE   CLOUDY    73  67  81 SW14G22   29.92F
WILMINGTON     LGT RAIN  73  70  90 S8        29.95F


$$

NCZ011>013-027>030-043-044-078>080-089-090>093-098-272000-
COASTAL PLAIN

CITY           SKY/WX    TMP DP  RH WIND       PRES   REMARKS
AHOSKIE          N/A     74  74 100 S8        29.87F
ROCKY MOUNT    CLOUDY    79  67  66 S14G22    29.87F
GREENVILLE     CLOUDY    77  72  83 SW13G18   29.88F
WASHINGTON     CLOUDY    76  69  79 S8        29.90F
GOLDSBORO      CLOUDY    77  65  66 S15G24    29.87F
KINSTON        MOSUNNY   75  68  78 S16       29.91F
NEW BERN       LGT RAIN  75  67  76 S6        29.92F
HAVELOCK       CLOUDY    76  65  68 SW14G36   29.93F
KENANSVILLE    CLOUDY    75  70  83 MISG      29.92R
RICHLANDS      CLOUDY    74  67  78 SW15G21   29.93F
CLINTON        CLOUDY    75  72  88 S7        29.92F
ELIZABETHTOWN  LGT RAIN  72  69  91 S12       29.92F
WHITEVILLE     LGT RAIN  73  70  90 SE8       29.93F

$$

AMZ130-135-150-152-154-156-158-170-250-252-270-ANZ085-086-088-633-658-670-272000-
MARINE OBSERVATIONS

STATION/POSITION TIME  TEMP    WIND        PRES    WAVE   SWELL
                       AIR SEA DIR/SP/G            HT/PER HT/PER
                 (UTC) (F)     (DEG/KT/KT) (MB)    (FT/S) (FT/S)
64 E VA BEACH    1900          170/ 10/ 12 1013.4
64 E VA BEACH    1830   66 62                N/A     4/11   2/11
DUCK PIER        1848   76 64  190/ 14/ 19 1013.4
2 E DUCK         1856      63                N/A     3/11   2/11
10 NE DUCK       NOT AVBL
OREGON INLET     1836   77 78  200/ 17/ 23 1014.4
13E OREGON INLT  1856      67                N/A     5/ 5   3/12
13E CAPE HATTERA 1856      69                N/A     6/ 6   2/11
HATTERAS CG      1848   76 75  200/  6/ 16 1015.1
DIAMOND BUOY     1900      76  190/ 19/ 23 1015.2
CAPE LOOKOUT     1900   78     210/ 15/ 18 1014.1
BEAUFORT LAB     1848   77 77  210/  9/ 17 1013.1
30 SE NEW RVR IN 1908   76 75  210/ 17/ 27 1013.5
30 SE NEW RVR IN 1826      75                N/A     6/ 6
27 SE WRIGHTSVLE 1908   74 76  200/ 17/ 27 1013.2
5 SE WRIGHTSVLE  1808   72 75  240/ 17/ 25 1014.5
27 SE WRIGHTSVL  1908   74 76  200/ 17/ 27 1013.2
FRYING PAN BUOY  1910   74 77  240/ 16/ 19 1014.7
225 S CAPE HAT   1910   80 80  200/ 14/ 17 1016.4
41 SE CHARLESTON 1900   77 76  190/ 12/ 16 1014.0

$$



USA.gov is the U.S. government's official web portal to all federal, state and local government web resources and services.